Regional Weather Roundup
Issued by NWS

Home | Current Version | Previous Version | Text Only | Print | Product List | Glossary Off
Versions: 1 2 3 4 5 6 7 8 9 10 11 12 13 14 15 16 17 18 19 20 21 22 23 24 25 26 27 28 29 30 31 32 33 34 35 36 37 38 39 40 41 42 43 44 45 46 47 48 49 50

000
ASUS43 KLOT 170704
RWRIL

ILLINOIS REGIONAL WEATHER ROUNDUP
NATIONAL WEATHER SERVICE CHICAGO/ROMEOVILLE IL
200 AM CDT TUE OCT 17 2017

NOTE: "FAIR" INDICATES FEW OR NO CLOUDS BELOW 12,000 FEET WITH NO
SIGNIFICANT WEATHER AND/OR OBSTRUCTIONS TO VISIBILITY.

* THESE STATIONS ARE NOT UNDER NWS QUALITY CONTROL. THEY ALSO MAY NOT
  REPORT WEATHER SUCH AS PRECIPITATION OR FOG.

ILZ001-002-007-009-015-016-024-170800-
NORTHWEST ILLINOIS

CITY           SKY/WX    TMP DP  RH WIND       PRES   REMARKS
MOLINE         PTCLDY    54  36  50 SW9       30.17F
STERLING*      CLOUDY    47  39  74 CALM        N/A
SAVANNA*       MOCLDY    47  39  73 S6        30.17S
$$

ILZ003-004-008-010-011-017-018-170800-
NORTH CENTRAL ILLINOIS

CITY           SKY/WX    TMP DP  RH WIND       PRES   REMARKS
ROCKFORD       CLEAR     45  37  73 S5        30.19S
FREEPORT*      CLEAR     50  37  61 SW12      30.18S
ROCHELLE*      CLOUDY    44  39  82 S7        30.19F
$$

ILZ005-006-012>014-019>023-170800-
NORTHEAST ILLINOIS

CITY           SKY/WX    TMP DP  RH WIND       PRES   REMARKS
CHICAGO-OHARE  CLEAR     50  38  63 SW7       30.19F
CHICAGO-MIDWAY PTCLDY    50  39  66 SW6       30.21S
AURORA         CLEAR     45  39  79 S5        30.21S
LANSING*       CLEAR     44  39  85 SW5       30.23S
JOLIET*        CLEAR     46  42  88 S3        30.22S
WAUKEGAN       CLEAR     47  39  74 SW7       30.17S
DUPAGE AIRPORT CLEAR     42  38  85 S6        30.20S
KANKAKEE*      CLEAR     44  37  78 SW3       30.26R
WHEELING       CLEAR     49  39  68 S5        30.20S
NORTHERLY ISL    N/A     52  38  58 W5          N/A
$$

LMZ740>746-170800-
SOUTHERN LAKE MICHIGAN

STATION/POSITION SKY/WX   TEMP    WIND        PRES    VSBY  WAVE
                          AIR SEA DIR/SP/G                  HT/PER
                          (F)     (DEG/KT/KT) (MB)    (MI)  (FT/S)
SOUTHERN BUOY              60 62  250/ 17/ 19 1021.8          3/ 5
WILMETTE HARBOR            53 57  210/ 12/ 14   N/A           1/ 2
BURNHAM HARBOR             52     200/  4/  8   N/A
CALUMET HARBOR             52     200/  6/  8 1022.3S
BURNS HARBOR               51     190/ 12/ 13 1023.7S
MICHIGAN CITY 6N           54 57  210/ 14/ 16   N/A           2/ 3
ST. JOSEPH                 55 57  210/ 12/ 16 1023.6F         2/ 3
$$

ILZ025>027-034>036-040-047-049-050-058-095>099-170800-
WEST-CENTRAL ILLINOIS

CITY           SKY/WX    TMP DP  RH WIND       PRES   REMARKS
QUINCY         CLOUDY    47  39  74 S7        30.24R
GALESBURG*     CLOUDY    45  38  77 S6        30.23S
MACOMB*        CLOUDY    48  38  68 SW8       30.25S
JACKSONVILLE*  CLEAR     48  39  72 S5        30.25S
$$

ILZ028>032-037-038-041>044-048-051>054-059>061-170800-
CENTRAL ILLINOIS

CITY           SKY/WX    TMP DP  RH WIND       PRES   REMARKS
BLOOMINGTON    CLEAR     49  39  68 SW9       30.26S
DECATUR        CLEAR     47  39  74 SW9       30.27S
PEORIA         CLEAR     47  38  71 SW5       30.24R
LACON*         PTCLDY    49  40  70 S3        30.21S
LINCOLN*       CLEAR     47  41  79 S3        30.26S
SPRINGFIELD    CLEAR     51  40  65 S7        30.26S
TAYLORVILLE    NOT AVBL
$$

ILZ033-039-045-046-055>057-062-063-170800-
EAST-CENTRAL ILLINOIS

CITY           SKY/WX    TMP DP  RH WIND       PRES   REMARKS
CHAMPAIGN      CLEAR     43  38  82 S8        30.27S
DANVILLE*      CLEAR     44  38  79 S6        30.25S
MATTOON        CLEAR     49  39  68 S7        30.28S
PARIS*         CLEAR     46  39  76 SW8       30.30S
$$

ILZ079-100>102-170800-
SOUTHWEST ILLINOIS

CITY           SKY/WX    TMP DP  RH WIND       PRES   REMARKS
BELLEVILLE     CLEAR     44  41  88 CALM      30.28F
CAHOKIA*       CLEAR     44  39  82 CALM      30.29S
SPARTA*        CLEAR     49  38  66 CALM      30.31S
$$

ILZ064>066-069>071-074>076-080>082-084>086-088>090-092>094-170800-
SOUTH-CENTRAL ILLINOIS

CITY           SKY/WX    TMP DP  RH WIND       PRES   REMARKS
CARBONDALE     CLEAR     39  39 100 CALM      30.32R FOG
MARION         CLEAR     43  42  98 CALM      30.33R
MT. VERNON     CLEAR     37  37 100 CALM      30.32S FOG
CENTRALIA*     CLEAR     44  38  81 CALM      30.30S
METROPOLIS*    CLEAR     39  38  97 CALM      30.34S
$$

ILZ067-068-072-073-078-083-087-091-170800-
SOUTHEAST ILLINOIS

CITY           SKY/WX    TMP DP  RH WIND       PRES   REMARKS
LAWRENCEVILLE  CLEAR    N/A N/A N/A CALM      30.32S
FLORA*         CLEAR     43  40  89 CALM      30.32S
FAIRFIELD*     CLEAR     42  41  98 CALM      30.31S
HARRISBURG*    CLEAR     39  39  99 CALM      30.34R
ROBINSON*      CLEAR     41  38  88 CALM      30.32S
CARMI*         CLEAR     38  38 100 CALM      30.32S
$$

ABBREVIATIONS USED IN REMARKS
   TC - TEMPERATURE IN CELSIUS
  WCI - WIND CHILL INDEX
   HX - HEAT INDEX
  VSB - VISIBILITY
$$





USA.gov is the U.S. government's official web portal to all federal, state and local government web resources and services.